Lapse_Rate
6.9 7.1 7.2 7.5 7.4 7.4 7.4 7.0 7.3 7.7 7.6 7.1 7.1 6.2 6.2 6.7 7.0 6.8 6.3 6.5 6.5 6.3 6.3 6.3 6.3 6.3 6.3 6.3 6.2 6.1 6.1 5.9 5.9 5.9 5.7 5.7 5.5 5.5 5.5 5.5 5.4 5.4 5.5 5.4 5.4 5.3 5.2 5.2 5.2
7.0 7.1 7.3 7.6 7.5 7.0 6.8 7.0 7.6 7.4 7.2 7.1 7.3 6.6 6.4 6.1 6.6 6.6 6.3 6.2 6.4 6.3 6.3 6.5 6.4 6.4 6.4 6.3 6.2 6.0 6.0 5.9 5.8 5.7 5.6 5.5 5.5 5.4 5.3 5.4 5.4 5.4 5.4 5.4 5.5 5.5 5.4 5.4 5.5
7.1 7.2 7.4 7.6 7.0 7.1 6.8 7.2 7.2 7.2 7.1 7.3 6.9 6.8 6.6 5.8 6.2 6.5 6.3 6.0 6.3 6.3 6.2 6.1 6.2 6.3 6.3 6.3 6.1 6.1 6.0 6.0 5.9 5.9 5.8 5.7 5.6 5.6 5.6 5.5 5.5 5.5 5.5 5.5 5.5 5.5 5.6 5.5 5.5
7.1 7.2 7.5 7.6 7.1 7.0 7.1 7.4 7.1 6.9 7.1 7.2 6.8 6.6 6.3 6.6 6.5 6.4 6.2 5.8 5.6 6.6 6.5 6.4 6.4 6.3 6.2 6.2 6.2 6.2 6.2 6.2 6.1 6.0 6.0 5.9 5.9 5.8 5.9 5.8 5.7 5.6 5.5 5.6 5.5 5.6 5.6 5.6 5.5
7.0 7.1 7.2 7.1 6.6 6.9 7.0 7.3 6.9 6.8 7.1 7.0 6.5 6.2 6.2 6.4 6.7 6.5 6.3 5.7 5.3 5.4 5.5 6.1 6.2 6.2 6.2 6.1 6.1 6.1 6.1 6.1 6.1 6.0 6.0 6.0 6.0 5.9 5.9 5.8 5.7 5.7 5.7 5.7 5.6 5.7 5.8 5.7 5.7
6.9 6.9 7.0 7.1 6.5 6.8 7.0 7.2 7.0 7.0 7.0 7.3 6.4 6.2 6.3 6.2 6.4 6.0 5.6 5.4 5.8 6.1 6.5 6.5 6.2 6.3 6.3 6.4 6.4 6.3 6.2 6.1 6.0 6.0 5.9 5.9 5.8 5.8 5.8 5.9 5.8 5.7 5.7 5.8 5.8 5.8 5.9 5.8 5.8
6.9 6.8 6.8 6.6 6.8 7.0 7.0 7.2 7.1 7.0 6.9 7.1 6.8 6.6 6.5 6.2 6.2 6.0 6.1 6.2 6.4 6.2 6.8 6.6 6.5 6.4 6.2 6.2 6.3 6.2 6.2 6.2 6.2 6.2 6.2 6.1 6.1 6.1 6.0 5.9 5.9 5.8 5.8 5.6 5.7 5.7 5.8 6.0 6.0
6.8 6.7 7.0 6.8 6.6 6.7 6.9 7.1 7.3 6.8 6.8 7.1 7.3 6.9 6.8 6.7 6.6 6.7 6.5 6.3 6.3 6.6 6.5 6.7 6.6 6.7 6.5 6.4 6.2 6.1 6.2 6.2 6.1 6.1 6.1 6.1 6.3 6.3 6.1 6.1 6.1 6.0 5.9 5.8 5.7 5.6 5.6 5.8 6.0
6.8 6.8 7.1 7.1 7.0 6.8 6.9 6.9 7.2 6.7 6.6 6.8 7.0 7.1 7.2 6.9 6.9 7.1 7.0 6.4 6.2 6.1 5.8 6.1 6.1 6.3 6.4 6.4 6.6 6.6 6.4 6.3 6.3 6.2 6.1 6.2 6.3 6.1 6.1 6.2 6.2 6.2 6.1 5.9 6.0 5.9 5.9 6.0 6.0
6.9 6.7 6.9 7.0 7.0 7.0 7.0 7.1 7.2 6.8 6.8 6.7 6.8 6.9 7.0 7.0 7.0 6.9 6.8 6.7 6.5 6.4 6.2 6.2 6.2 6.1 6.1 6.3 6.4 6.5 6.5 6.4 6.3 6.3 6.3 6.4 6.2 6.1 6.0 6.1 6.1 6.2 6.2 6.0 6.2 6.0 6.1 6.2 6.1
6.8 7.0 7.1 7.0 7.0 7.0 7.0 7.0 7.0 7.2 7.2 7.1 7.0 6.9 7.0 7.2 6.9 6.8 6.7 6.7 6.8 6.7 6.6 6.7 6.7 6.5 6.4 6.3 6.3 6.3 6.3 6.4 6.4 6.3 6.2 6.0 6.0 6.2 6.1 6.1 6.2 6.2 6.2 6.1 5.9 6.0 6.2 6.6 6.7
7.0 6.9 6.9 6.9 7.0 7.1 7.0 6.9 7.2 6.9 6.8 6.7 6.6 6.8 6.6 6.7 6.7 6.6 6.6 6.5 6.6 6.7 6.6 6.6 6.7 6.7 6.4 6.4 6.4 6.5 6.3 6.2 6.2 6.1 6.2 6.2 6.3 6.1 5.9 5.9 6.0 6.0 6.0 6.1 6.0 6.2 6.0 6.2 6.0
6.8 6.9 7.0 6.9 6.9 7.0 6.7 6.7 6.8 6.8 6.6 6.6 6.9 6.9 6.8 6.5 6.4 6.3 6.3 6.2 6.2 6.2 6.2 6.2 6.1 6.2 6.1 6.0 5.9 5.8 5.7 5.8 5.8 5.8 5.9 6.0 6.0 6.0 6.0 5.9 5.7 5.7 5.9 5.9 6.0 5.9 6.0 6.5 6.3
6.9 6.7 6.7 6.8 6.9 7.4 7.2 7.3 7.0 7.4 7.0 6.4 6.3 6.1 6.2 6.4 6.4 6.2 6.1 6.0 5.8 5.9 5.9 5.5 5.3 5.2 4.9 5.0 4.8 4.6 4.7 4.8 4.8 5.1 5.3 5.4 5.5 5.8 5.9 5.9 5.8 5.6 5.4 5.6 5.8 5.9 6.1 6.2 6.2
6.8 6.5 6.7 6.8 7.0 7.3 7.2 7.2 7.1 6.2 6.0 6.0 5.8 5.8 5.8 5.9 5.9 5.8 5.5 5.4 5.2 5.0 4.8 4.3 3.9 3.9 4.0 4.1 4.2 4.2 4.1 4.1 4.3 4.4 4.5 4.6 4.8 5.1 5.5 5.5 5.6 5.5 5.5 5.3 5.3 5.8 5.9 5.9 6.1
6.9 6.9 6.7 6.8 6.8 7.2 7.3 7.1 6.5 6.1 5.7 5.8 5.8 5.8 5.7 5.6 5.4 5.1 5.0 4.9 4.4 4.1 4.1 4.1 3.8 3.8 4.0 4.0 3.9 4.0 4.0 3.9 4.1 4.1 4.2 4.2 4.3 4.4 4.6 5.0 5.4 5.3 5.4 5.4 5.3 5.2 5.5 5.9 6.1
6.9 6.9 6.8 6.7 6.7 6.7 6.7 7.3 6.9 6.6 6.4 6.0 5.8 5.5 4.9 4.5 4.0 3.7 3.3 3.1 3.1 3.3 3.8 4.2 4.5 4.5 4.5 4.5 4.6 4.6 4.5 4.6 4.5 4.7 4.8 5.0 4.8 4.7 4.6 4.7 5.0 5.4 5.4 5.3 5.3 5.3 5.2 5.6 5.8
6.8 6.7 6.8 6.7 6.4 6.9 7.1 6.8 6.8 6.3 5.9 5.9 5.7 5.4 5.2 4.3 3.6 2.7 2.4 2.1 1.9 2.3 3.3 3.9 4.3 5.0 5.6 5.7 5.7 5.4 5.3 5.5 5.4 5.1 5.3 5.6 5.4 5.2 5.0 4.8 4.8 4.9 5.1 5.4 5.3 5.3 5.4 5.4 5.7
6.6 6.2 6.2 6.9 6.2 6.0 6.9 6.7 6.5 6.3 5.8 5.1 5.0 4.9 4.3 3.8 3.4 3.0 2.6 2.6 2.9 3.4 3.8 4.2 4.7 5.3 5.9 6.7 6.8 6.8 6.1 5.8 5.9 5.5 5.7 5.7 5.6 5.4 5.0 5.1 5.2 5.2 5.0 5.2 5.3 5.2 5.3 5.5 5.6
6.2 6.4 6.1 6.4 6.4 6.2 6.4 5.9 5.9 5.4 5.4 5.3 4.8 4.4 4.2 3.9 3.6 3.5 3.6 3.9 4.7 5.1 5.8 6.6 6.9 6.8 6.7 6.7 6.6 6.5 6.3 6.1 5.9 5.7 5.5 5.4 5.6 5.9 5.6 5.2 5.1 5.3 5.4 5.3 5.5 5.4 5.3 5.4 5.7
6.0 5.9 5.9 5.7 5.3 6.3 5.6 5.6 5.5 5.4 4.7 4.9 4.6 4.2 4.0 4.0 4.0 3.9 4.1 4.8 5.9 6.7 7.1 7.0 6.8 6.9 6.6 6.3 6.8 6.7 6.8 6.8 6.5 6.4 6.2 6.1 5.9 6.0 6.1 5.9 5.6 5.5 5.4 5.6 5.8 5.8 5.6 5.5 5.6
5.6 5.2 5.6 6.2 5.2 5.2 5.0 4.8 5.2 4.5 4.8 4.2 4.1 4.3 4.3 4.2 4.1 4.5 5.3 6.0 6.4 6.7 7.1 7.3 7.1 7.2 7.2 7.1 7.0 6.8 6.7 6.6 7.0 6.7 6.4 6.3 6.2 6.0 6.0 6.2 6.3 6.1 6.1 6.0 5.7 6.0 5.9 5.7 5.9
4.8 4.7 6.1 6.8 6.2 5.1 5.2 5.4 4.4 4.4 4.5 4.8 5.1 4.8 4.7 4.7 5.1 5.7 6.5 6.9 7.1 7.5 7.9 7.9 7.6 7.5 7.4 7.3 7.6 7.3 6.9 6.9 6.6 6.8 6.4 6.4 6.6 6.4 6.3 6.2 6.4 6.7 6.5 6.3 6.3 6.2 6.1 6.2 5.8
4.9 5.4 6.5 6.5 6.5 4.8 4.7 4.9 4.8 4.4 4.5 5.1 5.0 5.3 5.6 6.3 6.7 7.2 7.4 7.6 7.8 8.0 8.2 8.2 8.3 8.4 8.2 7.8 7.5 7.3 7.1 6.9 6.7 6.6 6.8 7.0 7.0 7.0 6.8 6.5 6.3 6.7 7.0 6.9 6.7 6.4 6.4 6.4 6.1
4.9 4.9 4.8 4.9 5.0 4.9 5.6 5.0 4.3 4.0 4.9 5.1 5.0 5.7 6.5 7.1 7.1 7.3 7.5 7.5 7.7 7.9 8.2 8.5 8.5 8.4 8.1 7.9 7.4 7.1 6.8 6.6 6.4 6.2 6.3 6.6 6.9 7.2 7.4 7.0 6.6 6.6 6.9 7.1 7.1 6.8 6.6 6.4 6.3
4.3 4.3 4.7 4.1 3.7 4.4 4.4 4.9 4.7 4.8 5.5 5.1 5.7 6.2 6.7 7.2 7.4 7.6 7.9 8.1 7.8 7.8 7.7 7.9 8.3 8.3 8.1 8.0 7.7 7.1 6.8 6.4 6.2 6.1 6.5 6.6 6.9 7.3 7.4 7.5 7.0 6.6 6.8 7.1 7.1 7.0 6.9 6.7 6.5
4.5 4.1 4.1 4.0 4.2 3.5 4.5 4.9 5.1 6.2 4.3 4.5 5.5 6.6 6.8 7.4 7.8 8.0 8.4 8.5 8.2 7.8 7.8 7.8 7.9 8.2 8.0 7.7 7.6 7.1 6.9 6.5 6.3 6.6 6.7 6.9 7.3 7.5 7.7 7.7 7.4 7.3 7.1 7.0 7.0 7.1 7.1 7.0 6.5
4.0 4.1 4.1 4.0 2.8 3.4 4.3 4.1 4.2 3.6 3.5 4.8 6.2 7.3 7.9 7.8 8.0 8.1 8.2 8.4 8.1 7.9 7.9 8.0 8.2 8.1 8.0 7.7 7.5 7.2 6.9 6.5 6.4 6.7 7.1 7.4 7.5 7.6 7.6 7.7 7.5 7.4 7.9 7.7 7.5 7.5 7.2 6.8 6.4
4.4 3.8 3.7 3.6 3.9 3.5 3.5 3.4 4.9 4.2 5.5 6.6 7.3 7.8 8.1 7.9 7.9 8.0 7.7 8.2 7.9 7.9 8.0 8.1 8.1 8.0 7.8 7.7 7.6 7.4 7.0 6.6 6.5 6.9 7.3 7.4 7.3 7.2 7.1 7.0 7.1 7.4 7.5 7.6 7.7 7.6 7.1 6.9 6.7
4.1 3.8 3.3 3.2 3.5 3.3 3.3 3.0 4.6 5.2 5.9 7.1 7.6 7.8 7.8 7.9 8.1 8.0 7.8 8.2 8.2 8.0 8.0 8.1 7.9 7.7 7.7 7.6 7.4 7.4 6.9 6.6 6.7 7.2 7.5 7.3 7.1 7.1 7.0 7.0 7.3 7.5 7.3 7.0 7.2 7.6 7.5 7.1 6.9
Wind_Speed
15 14 2 4 4 4 3 5 3 10 6 2 4 10 11 5 6 5 3 9 15 11 14 13 11 10 9 9 8 7 6 5 6 4 3 3 2 3 5 6 6 5 5 5 6 6 6 6 6
7 6 4 2 4 5 5 3 9 4 2 6 2 12 18 10 5 8 3 10 15 14 16 13 12 9 9 7 8 9 8 6 6 5 4 3 2 2 3 4 7 6 6 6 6 5 6 5 5
5 3 3 3 2 2 3 4 4 4 9 6 5 7 4 1 5 4 6 10 16 12 17 17 16 12 8 7 6 9 8 7 7 6 5 5 4 4 4 4 7 7 7 7 7 6 6 5 4
1 4 4 3 3 4 7 3 6 2 9 12 5 7 4 5 3 4 3 8 12 11 15 17 15 12 8 5 7 9 10 9 8 8 8 8 7 8 7 7 8 9 9 8 8 8 7 7 6
3 3 3 3 5 1 7 8 8 9 5 10 14 4 6 7 6 6 8 12 13 9 14 15 16 12 10 7 7 9 10 10 9 9 8 10 11 11 10 10 10 11 11 10 10 10 9 8 7
4 3 3 2 6 5 7 8 8 6 5 5 10 7 4 7 9 7 11 13 10 10 11 10 7 7 6 8 8 9 9 10 10 11 11 11 12 12 13 13 13 12 14 13 12 11 11 10 9
3 3 2 3 4 7 6 4 6 4 5 7 3 6 1 8 8 15 16 17 18 18 17 18 19 18 12 9 8 9 10 10 10 12 13 14 14 15 14 15 16 16 16 16 14 13 12 12 12
3 3 5 6 3 3 7 3 3 5 5 2 4 5 2 6 9 12 15 15 16 15 14 15 19 21 18 17 20 19 12 12 12 13 14 15 16 16 17 18 19 20 19 18 17 16 15 14 13
2 5 4 3 4 1 7 6 7 4 7 11 5 6 2 9 13 15 12 14 12 13 14 14 14 17 18 16 19 19 18 17 17 15 16 17 14 16 19 19 21 23 22 22 20 19 18 16 15
4 4 2 3 3 3 7 6 4 5 5 5 7 12 12 15 14 14 13 11 13 14 14 12 13 15 17 15 15 15 15 14 12 12 11 12 14 14 16 18 23 25 24 23 21 21 19 17 11
3 3 2 3 5 6 6 7 5 3 6 4 6 9 14 15 15 13 14 8 8 6 9 9 9 14 14 12 14 13 13 13 13 13 12 11 10 11 8 9 11 10 21 13 18 17 14 13 12
5 5 5 3 4 4 6 8 3 5 3 7 9 8 12 13 13 12 13 11 8 10 9 8 9 8 13 13 10 12 10 12 11 14 16 10 4 4 4 4 7 8 8 4 7 6 11 13 15
5 2 5 5 3 5 6 5 1 7 8 9 11 12 10 10 10 9 9 11 9 9 9 9 8 8 11 10 12 11 9 10 14 15 17 17 8 5 4 4 5 5 8 5 4 4 5 7 10
3 2 3 4 5 3 1 6 5 7 8 8 13 10 9 11 9 9 9 9 9 7 8 9 9 13 15 7 9 9 13 13 15 15 18 20 13 6 5 6 6 5 5 6 5 7 7 6 8
2 2 1 3 3 2 3 8 1 7 6 9 10 9 9 9 10 9 7 7 7 5 7 8 10 13 9 8 9 11 13 14 11 13 18 19 19 15 6 6 7 5 7 8 6 6 8 9 7
4 5 2 4 5 4 6 6 2 6 7 10 8 7 8 8 8 8 8 7 7 6 7 7 7 7 8 7 10 12 12 12 12 15 14 17 20 19 9 5 5 9 7 5 6 5 4 4 5
8 2 4 8 3 2 5 7 7 5 7 7 8 7 8 7 9 8 7 5 6 5 5 5 4 5 6 6 8 10 13 10 11 12 13 16 16 18 12 9 6 9 6 4 4 7 6 6 5
3 3 4 6 5 8 6 6 8 10 8 8 9 9 9 10 7 6 7 8 7 6 3 3 3 4 4 2 4 4 5 7 13 11 10 15 14 15 14 8 9 9 7 7 4 4 5 6 6
6 4 8 5 5 11 5 13 10 5 10 13 9 9 9 8 2 6 7 7 8 8 7 6 3 3 3 1 2 2 3 4 4 6 14 17 13 15 13 8 9 9 8 9 9 5 5 5 3
8 6 6 9 10 10 8 12 10 12 8 10 11 9 9 9 10 10 9 9 9 8 7 9 6 4 2 1 2 3 2 3 4 5 9 14 16 16 12 9 9 10 8 10 8 8 5 4 4
6 2 5 8 11 8 6 3 5 5 11 13 10 7 8 7 8 8 8 7 7 9 9 9 7 6 5 5 2 3 3 3 3 4 4 5 11 15 13 8 10 10 8 8 9 8 9 7 6
5 3 9 17 6 3 6 4 4 4 8 9 9 9 7 8 7 7 8 8 8 9 9 9 8 8 7 5 4 5 3 5 4 4 4 6 10 9 10 10 11 11 9 7 9 7 8 7 8
6 12 19 17 6 2 9 3 2 6 7 7 8 7 8 7 6 6 6 6 7 6 5 7 7 8 10 8 5 5 10 7 5 4 7 7 7 7 7 7 11 10 9 7 6 9 9 7 7
11 9 11 3 4 2 3 5 4 4 5 5 6 8 9 9 8 8 6 7 7 8 8 8 8 8 8 7 8 8 9 10 8 7 7 6 6 5 6 7 7 8 11 9 8 9 9 9 9
10 7 5 6 5 4 16 7 4 5 15 8 14 10 12 8 8 8 8 8 8 8 8 7 7 8 8 8 9 9 8 8 9 11 10 10 7 4 6 6 6 6 11 13 9 9 8 9 8
6 5 3 5 4 13 10 4 4 7 17 6 9 7 11 9 9 8 9 8 8 8 8 8 8 8 9 9 9 8 8 5 6 7 8 8 7 7 7 6 6 8 13 13 12 10 10 9 9
6 5 3 3 3 2 4 4 15 24 21 24 20 19 12 12 12 11 11 9 8 8 8 8 8 8 10 9 8 8 7 8 9 10 7 6 8 8 8 6 7 10 13 13 14 8 10 9 10
5 1 4 4 5 6 6 9 4 19 18 19 20 18 19 21 20 17 16 14 8 7 7 8 9 9 9 8 7 11 10 9 10 9 8 9 9 7 7 8 9 11 12 13 10 9 12 12 10
5 4 5 2 3 3 5 4 14 15 16 18 19 16 15 17 15 19 18 16 8 8 8 10 11 9 8 8 8 12 12 11 10 9 10 8 9 12 13 12 10 11 12 8 11 13 14 14 13
7 4 4 3 6 4 4 12 18 14 14 16 16 17 19 19 16 20 15 13 13 12 10 10 12 8 11 9 13 14 14 12 11 12 12 10 12 12 10 9 13 12 9 13 13 13 13 13 13
Wind_Direction
308 306 107 32 51 69 274 20 125 45 41 347 19 83 77 63 65 121 243 117 120 134 141 142 149 156 162 158 162 159 152 150 154 146 150 137 133 98 149 161 155 150 140 140 123 119 114 109 104
297 316 48 68 77 52 342 320 68 76 64 357 53 86 68 56 50 111 97 137 136 142 147 140 151 156 165 173 180 177 170 174 172 170 189 195 185 181 190 196 176 170 166 171 156 145 144 128 116
274 210 83 100 100 358 122 328 67 71 39 23 24 68 48 350 59 110 198 138 144 148 153 157 163 166 172 184 189 190 188 187 191 193 206 222 223 221 222 229 197 190 188 190 184 173 168 159 149
327 14 11 82 129 321 110 357 22 71 6 29 125 58 40 40 86 126 97 139 128 147 152 155 162 166 170 198 211 210 205 205 208 201 215 224 229 231 228 228 224 207 205 203 203 199 194 185 187
40 68 31 56 43 99 46 21 34 39 85 46 87 93 63 2 85 98 59 98 101 96 128 154 161 166 176 194 216 212 211 222 229 231 227 237 238 238 237 237 234 227 218 213 214 213 213 212 210
8 97 43 64 116 25 41 47 54 53 26 53 79 81 14 317 31 16 71 76 80 96 75 51 143 179 206 208 209 207 215 222 225 233 237 245 254 248 241 243 240 238 227 223 220 220 219 222 225
102 70 225 51 112 42 17 355 48 64 62 16 122 102 55 7 345 63 71 65 63 56 52 39 39 25 358 277 267 256 252 247 238 238 244 247 248 251 246 241 240 235 228 225 225 227 225 224 227
97 94 358 21 77 48 1 55 86 73 17 132 46 59 41 322 8 69 67 63 61 62 52 39 30 20 11 29 19 8 305 286 273 269 264 256 255 256 245 245 238 236 230 225 225 225 229 230 232
82 60 26 26 53 344 352 37 333 17 97 55 76 92 67 46 47 47 47 51 50 45 48 46 37 27 18 16 16 13 8 356 359 343 314 292 267 254 250 241 238 236 234 229 222 221 224 226 228
77 81 63 70 55 8 339 11 333 61 23 55 44 25 30 49 47 52 50 48 44 41 38 38 33 24 16 24 13 4 357 356 354 346 335 328 329 296 268 259 252 239 234 231 227 225 222 223 218
49 116 353 43 58 8 325 338 337 84 51 59 73 53 40 44 45 43 41 49 51 44 42 36 33 26 22 15 8 3 358 2 354 343 327 319 317 316 327 312 289 274 246 224 230 229 219 212 209
92 58 37 41 43 21 341 316 66 51 124 113 92 94 66 54 49 39 41 34 31 36 27 21 28 25 16 9 4 355 357 351 350 340 341 332 320 315 317 311 329 302 274 215 215 218 234 226 214
68 5 86 127 130 60 23 342 148 140 149 133 103 84 79 75 61 48 41 39 30 33 21 14 27 17 15 10 354 351 346 347 341 338 345 344 339 316 333 323 317 330 303 259 226 236 240 234 224
291 31 154 116 111 83 21 269 176 201 166 138 97 92 84 82 78 57 47 34 32 33 23 14 21 17 13 2 351 348 351 349 358 354 350 350 351 346 338 335 325 326 301 276 249 238 235 237 246
236 154 201 6 343 21 321 6 76 173 150 95 105 103 94 92 76 74 63 49 36 23 35 28 25 18 8 351 352 1 347 356 357 350 350 349 348 337 340 340 333 309 283 282 236 231 247 248 241
342 56 78 328 4 16 69 263 167 44 94 76 119 111 101 90 96 85 69 60 36 43 43 38 33 21 4 355 358 354 343 345 349 349 342 338 339 336 325 326 324 322 325 324 321 291 265 237 233
12 346 348 329 105 355 55 279 312 350 99 99 111 105 90 82 63 59 63 53 28 58 51 38 34 29 16 356 358 342 337 342 336 334 334 346 342 337 343 335 322 323 322 311 310 310 294 283 265
310 328 297 280 339 348 309 281 300 310 103 82 65 61 61 54 59 47 33 23 12 28 26 32 26 15 14 27 352 338 338 335 331 332 341 339 334 340 336 327 324 325 322 314 291 282 287 272 272
287 270 295 275 350 2 304 301 311 334 79 75 61 55 48 37 355 39 20 12 14 3 344 337 320 304 45 34 346 351 311 298 312 318 332 333 333 332 328 318 318 319 314 301 300 284 277 283 253
350 310 319 296 1 324 325 335 58 61 78 79 74 53 44 27 18 1 2 11 2 341 333 321 305 326 308 215 235 211 251 278 270 296 309 315 321 320 320 318 314 305 304 300 302 294 288 268 226
339 15 307 276 340 307 356 22 43 30 62 52 38 45 42 37 14 356 5 354 340 341 329 333 291 281 281 247 265 289 297 296 286 283 276 276 298 303 308 315 318 313 312 303 298 296 279 282 275
308 331 315 302 353 303 21 285 63 60 59 45 27 27 14 3 359 0 2 348 334 322 315 315 297 290 285 270 270 252 268 262 240 255 257 281 278 282 289 309 311 312 308 289 293 297 295 289 279
277 317 285 288 233 2 344 55 6 32 26 14 7 7 350 336 348 340 325 302 281 282 300 307 311 325 321 289 294 272 284 265 257 257 265 265 271 263 271 281 298 303 313 299 313 321 318 309 286
340 306 312 37 113 101 220 184 318 43 4 352 348 339 334 333 333 320 302 312 313 315 323 322 325 323 327 315 296 287 271 275 280 273 271 272 260 260 254 267 277 290 301 291 294 294 288 294 292
2 2 347 3 5 247 4 4 201 95 23 22 356 355 350 344 336 322 318 309 305 313 317 324 329 315 308 307 298 291 287 287 279 287 293 284 273 255 259 257 259 282 295 291 279 281 274 282 283
333 50 87 307 322 300 316 179 202 65 15 13 342 0 350 328 327 317 304 302 303 303 316 321 316 308 302 295 297 294 288 280 277 282 284 280 277 273 263 258 258 285 293 283 279 272 279 273 271
337 34 201 248 276 324 263 299 321 5 14 8 2 351 340 329 325 318 310 305 300 316 310 301 303 301 302 298 295 291 283 283 289 279 269 274 279 284 281 272 273 291 286 276 275 271 273 270 267
96 223 7 7 319 305 288 314 274 4 354 354 356 350 343 337 342 332 323 314 312 316 303 307 304 290 289 292 294 308 289 280 285 284 272 279 280 268 266 274 272 279 275 272 273 282 277 273 264
15 22 29 306 284 282 301 294 339 356 354 355 337 329 327 318 316 334 320 328 312 319 315 312 307 299 296 293 294 299 293 290 286 275 285 269 273 285 285 280 268 278 279 261 280 271 265 260 259
91 71 99 121 291 241 248 295 7 8 347 327 319 319 315 327 332 321 313 329 327 320 305 308 303 298 301 284 306 301 296 290 288 290 285 270 280 281 272 268 283 283 273 282 270 269 267 264 257